Vertical_Velocity
-0 5 0 -0 1 0 -2 -2 2 -1 -1 2 1 -1 3 -2 -2 0 -1 -1 1 -1 -1 -1 -1 -2 -1 -0 -0 -5 -3 -0 -0
-0 7 -1 1 2 1 -2 -3 2 -0 -2 0 3 -0 -0 2 -2 1 0 -3 -0 0 0 -0 -1 -1 -3 -2 -1 2 -3 -4 1
1 2 -1 2 1 1 -0 -2 -2 2 2 -4 2 5 2 5 -1 -1 1 2 0 -1 -0 3 -1 -0 -1 -1 -1 -2 1 1 0
-2 8 5 6 2 3 2 -6 -2 -3 3 3 -1 2 0 3 3 1 2 -1 -1 0 1 -1 2 -1 -2 -1 -0 1 -2 -5 -1
-3 2 7 -2 2 2 -1 1 -1 -2 -1 1 1 -2 1 -0 0 3 0 1 -1 -2 0 -1 -3 -1 2 -1 0 3 -1 -1 -1
-7 -1 -6 0 0 6 7 0 1 1 -2 1 1 0 -1 3 1 -0 1 0 -1 -0 -2 1 1 -3 -3 1 2 1 -2 -3 -3
5 2 7 8 -2 -3 5 1 3 1 -2 -0 -1 0 -0 1 3 -3 -1 1 1 1 0 0 -1 1 -1 -2 -1 -1 -1 -2 0
3 5 -3 -5 3 2 -1 3 4 2 2 -1 -2 -1 0 1 3 1 -1 2 1 -3 -4 -3 -0 2 2 4 -2 -4 -0 1 -2
-2 6 -11 23 7 3 -1 -5 -7 10 4 -1 -0 3 -0 1 5 4 -4 -2 1 -1 5 7 8 1 -1 1 2 -4 -2 3 7
2 3 3 -11 6 5 9 4 2 1 8 8 1 6 2 4 -0 6 5 -1 -5 3 2 5 -1 9 1 0 -0 -2 -1 -2 -1
1 -5 -6 1 6 1 9 -1 -0 6 4 -3 -4 -1 16 2 4 3 -2 5 -2 9 7 10 4 4 18 15 10 5 4 -1 -0
3 -4 0 2 5 -6 3 2 2 2 4 11 9 4 -0 2 -3 -2 4 1 6 3 7 4 1 -1 -3 8 10 -4 -1 0 -2
1 2 -1 -6 -1 -10 0 -1 10 15 21 12 17 9 1 2 -2 2 3 15 13 15 16 10 3 3 6 1 17 15 10 2 3
1 7 3 -7 1 -4 3 3 4 -13 -16 7 18 24 15 2 11 12 12 16 16 28 10 3 0 -1 -2 1 4 3 3 1 -1
-1 0 -0 -3 -1 -7 -3 2 -2 1 -5 -8 -12 4 23 15 21 58 27 17 24 9 4 -3 -1 3 4 1 -1 0 4 2 0
0 -1 -0 -6 -1 -0 -1 -9 -3 -3 -0 -0 -3 -7 -3 -13 -13 5 9 16 -3 8 3 -1 -0 -1 -1 -2 1 1 2 1 2
1 -2 1 -1 -5 -5 -2 -0 -6 -3 -4 -3 0 -4 6 -2 -9 -5 4 5 6 6 -2 -10 -7 -5 -1 3 -1 1 5 -1 -3
-2 2 -2 -4 -4 -7 -6 -3 -2 -1 -1 0 -1 -3 0 5 -4 -11 -10 1 1 -2 2 0 2 1 0 -1 -2 2 -1 -0 1
-5 3 1 0 4 -1 -4 -5 -1 0 5 6 0 -0 0 -0 4 8 -5 -2 -3 -4 1 -1 3 -2 -1 3 2 -2 3 -4 1
-2 -5 -0 -0 -3 -4 -5 -0 -7 -1 -4 -2 2 4 11 2 4 -0 -4 2 -1 2 3 1 -0 1 -2 2 1 -5 2 2 2
Height
5883 5887 5889 5893 5897 5901 5905 5910 5914 5918 5921 5925 5927 5929 5931 5932 5934 5934 5936 5936 5936 5935 5936 5936 5938 5938 5938 5937 5939 5938 5939 5941 5942
5874 5880 5884 5889 5893 5897 5901 5906 5910 5916 5920 5923 5927 5928 5929 5930 5931 5933 5934 5934 5935 5935 5936 5936 5937 5938 5938 5937 5938 5939 5937 5939 5942
5864 5873 5879 5885 5889 5893 5898 5901 5905 5911 5917 5921 5923 5927 5928 5930 5931 5932 5933 5933 5933 5935 5937 5937 5936 5935 5936 5937 5937 5938 5939 5938 5938
5856 5865 5876 5882 5888 5890 5894 5897 5902 5907 5912 5917 5919 5921 5925 5927 5928 5930 5932 5932 5931 5931 5932 5933 5933 5933 5934 5935 5936 5936 5937 5938 5938
5860 5867 5872 5877 5882 5887 5891 5895 5897 5903 5908 5912 5914 5917 5920 5923 5925 5926 5927 5928 5928 5929 5929 5929 5929 5930 5932 5933 5934 5934 5934 5935 5936
5865 5865 5869 5873 5876 5881 5885 5889 5893 5897 5902 5906 5909 5913 5916 5919 5920 5921 5922 5922 5924 5925 5926 5926 5925 5927 5929 5930 5930 5930 5930 5930 5931
5866 5867 5865 5870 5871 5874 5879 5883 5889 5892 5895 5900 5903 5906 5909 5913 5916 5916 5917 5918 5919 5919 5922 5922 5923 5924 5926 5926 5926 5927 5927 5927 5928
5862 5864 5865 5866 5870 5872 5874 5880 5885 5886 5889 5893 5897 5901 5903 5906 5908 5911 5912 5914 5914 5914 5915 5917 5919 5920 5922 5922 5922 5923 5923 5922 5923
5856 5859 5860 5862 5867 5871 5873 5872 5876 5881 5884 5888 5892 5895 5896 5898 5899 5903 5904 5907 5909 5910 5910 5911 5912 5914 5914 5916 5917 5918 5919 5918 5918
5853 5856 5858 5859 5862 5864 5867 5870 5872 5874 5879 5883 5886 5888 5891 5892 5892 5893 5895 5898 5900 5904 5904 5904 5906 5906 5906 5907 5909 5911 5911 5912 5912
5847 5847 5851 5854 5858 5856 5859 5863 5866 5870 5872 5874 5878 5880 5883 5884 5886 5886 5885 5890 5891 5895 5897 5896 5898 5899 5899 5898 5902 5903 5903 5903 5905
5841 5841 5842 5845 5849 5850 5852 5856 5860 5862 5864 5866 5868 5871 5874 5877 5877 5878 5881 5883 5884 5885 5886 5888 5890 5891 5892 5894 5895 5895 5895 5895 5897
5837 5838 5837 5841 5842 5848 5850 5850 5853 5853 5853 5854 5859 5861 5865 5868 5870 5872 5874 5875 5876 5876 5876 5876 5878 5881 5885 5886 5883 5887 5888 5889 5890
5829 5832 5834 5835 5839 5843 5847 5846 5844 5844 5842 5841 5849 5846 5855 5859 5860 5862 5863 5864 5864 5864 5864 5866 5870 5874 5876 5877 5877 5879 5879 5880 5881
5819 5823 5825 5830 5833 5837 5840 5841 5838 5838 5838 5840 5840 5841 5841 5844 5844 5846 5854 5851 5853 5853 5854 5858 5863 5867 5869 5870 5871 5872 5873 5875 5875
5810 5816 5818 5820 5825 5828 5831 5834 5836 5835 5836 5835 5836 5836 5837 5840 5842 5841 5843 5844 5846 5848 5851 5853 5855 5858 5861 5862 5864 5866 5866 5866 5867
5803 5806 5809 5813 5816 5820 5822 5825 5827 5828 5828 5829 5829 5831 5830 5832 5834 5836 5838 5840 5842 5842 5845 5847 5849 5852 5854 5854 5855 5856 5857 5858 5858
5797 5798 5800 5803 5807 5810 5813 5814 5815 5817 5818 5818 5819 5821 5824 5824 5827 5830 5832 5833 5835 5837 5838 5840 5842 5843 5844 5845 5845 5847 5847 5847 5848
5789 5789 5790 5793 5797 5800 5802 5805 5805 5805 5806 5807 5809 5809 5813 5816 5817 5819 5823 5826 5828 5829 5830 5830 5832 5833 5834 5834 5834 5835 5836 5836 5836
5781 5781 5782 5784 5786 5789 5792 5797 5796 5796 5796 5797 5799 5799 5802 5805 5805 5808 5811 5813 5814 5815 5816 5819 5819 5820 5822 5822 5821 5821 5821 5822 5823